Regional Weather Roundup
Issued by NWS Jackson, KY

Home | Current Version | Previous Version | Graphics & Text | Print | Product List | Glossary On
Versions: 1 2 3 4 5 6 7 8 9 10 11 12 13 14 15 16 17 18 19 20 21 22 23 24 25 26 27
000
ASUS43 KJKL 130710
RWRJKL

EAST KENTUCKY HOURLY WEATHER ROUNDUP
NATIONAL WEATHER SERVICE JACKSON KY
200 AM EST WED DEC 13 2017

NOTE: "FAIR" INDICATES FEW OR NO CLOUDS BELOW 12,000 FEET WITH
NO SIGNIFICANT WEATHER AND/OR OBSTRUCTIONS TO VISIBILITY.

* THESE REPORTS ARE NOT UNDER NWS QUALITY CONTROL AND MAY NOT
  REPORT WEATHER SUCH AS PRECIPITATION AND FOG.

KYZ079-080-083-085-087-088-110-112-115-119-120-130800
...EASTERN KENTUCKY...

CITY           SKY/WX    TMP DP  RH WIND       PRES   REMARKS
JACKSON        CLEAR     20   6  55 W7        29.97S WCI  11
LONDON         CLEAR     20   9  62 W5        30.02S WCI  13
SOMERSET*      CLEAR     21   9  58 W7        30.07S WCI  13
MONTICELLO*    CLEAR     20  11  68 NW3       30.08S
WILLIAMSBURG*  SUNNY     23   7  50 W3        30.04S
MIDDLESBORO*   CLEAR     24   8  51 CALM      30.03S
HARLAN APT*    SUNNY     23   7  50 SW5       29.99R WCI  17
PIKE CO APT*     N/A     19   7  58 W9        29.96R WCI   8
BIG SANDY APT* SUNNY     21   7  55 NW5       29.97S WCI  15
MOREHEAD APT*  SUNNY     19   5  53 W5        29.99F WCI  13
$$

KYZ035-036-041-042-044-050-067-078-099-130800
...CENTRAL KENTUCKY...

CITY           SKY/WX    TMP DP  RH WIND       PRES   REMARKS
MT STERLING*   CLEAR     19   9  63 W7        30.00F WCI  10
FLEMING/MASON* CLEAR     15   7  70 W7        29.98F WCI   5
DANVILLE*      CLEAR     21  10  63 SW5       30.04S WCI  15
LEXINGTON      CLEAR     17   8  67 SW8       30.00F WCI   7
FRANKFORT      CLEAR     18   7  62 W5        30.00F WCI  11
LOUISVILLE     CLEAR     25   8  48 SW9       30.03F WCI  15
LEBANON*         N/A     19   9  63 CALM      30.04F
GLASGOW*       CLOUDY    18  13  80 CALM      30.08R
BOWLING GREEN  CLEAR     21  12  68 S3        30.09F
$$

KYZ091>093-OHZ055-061-077-WVZ005-015-034-035-042-130800
...SOUTHERN OHIO/WEST VIRGINIA...

CITY           SKY/WX    TMP DP  RH WIND       PRES   REMARKS
COVINGTON      PTCLDY    18   9  68 W7        29.97F WCI   9
COLUMBUS       FLURRIES  20  14  77 W7        29.90F WCI  11
DAYTON         PTCLDY    14   8  77 W9        29.94S WCI   2
WILMINGTON     CLEAR     15   9  76 W9        29.93F WCI   3
HUNTINGTON     PTCLDY    21   7  54 W6        29.98R WCI  13
CHARLESTON     CLOUDY    21  11  65 W7        29.94R WCI  12
PINEVILLE*       N/A     21   7  56 MISG      29.93S
BECKLEY        MIX PCPN  15   7  70 W17G24    29.80R WCI  -1
BLUEFIELD      CLOUDY    14   2  58 NW17G24   29.77S WCI  -3
LOGAN CO APT*  CLOUDY    19   5  53 W12G18    29.91R WCI   7
$$

VAZ002-007-008-TNZ017-027-036-066-071-130800
...SOUTHWEST VIRGINIA/EAST TENNESSEE...

CITY           SKY/WX    TMP DP  RH WIND       PRES   REMARKS
WISE*          CLEAR     19   9  63 W8        29.88S WCI   9
JONESVILLE*      N/A     23   7  50 W6        30.02R WCI  16
ABINGDON*      CLEAR     22   5  47 NW7       29.90R WCI  14
BRISTOL        CLEAR     23   6  48 W12       29.95F WCI  12
MORRISTOWN*    SUNNY     25   7  46 NW10      30.01R WCI  15
SEVIERVILLE*   SUNNY     27  10  50 W5        30.04R WCI  21
KNOXVILLE      CLEAR     27  11  51 CALM      30.05R
LAFOLLETTE*    SUNNY     25   7  46 CALM      30.07S
OAK RIDGE      CLEAR     27   7  42 W3        30.06S
CROSSVILLE     CLOUDY    21   7  54 NW6       30.01S WCI  13
NASHVILLE      CLOUDY    26  13  57 S3        30.10F
$$

...KEY TO REMARKS...
VSB - VISIBILITY IN MILES
WCI - WIND CHILL INDEX
HX  - HEAT INDEX

$$




USA.gov is the U.S. government's official web portal to all federal, state and local government web resources and services.